[[{"header":{"parameterUnit":"m.s-1","parameterCategory":1,"la1":30.2991,"la2":30.254,"lo1":-89.0895,"lo2":-89.0444,"dy":0.0017,"dx":0.0017,"nx":28,"ny":28,"refTime":"2025-04-24T21:00:00:Z","depth":0,"parameterNumber":2,"parameterNumberName":"U-component_of_WINDS"},"data":[0,0,0,0,0,0,0,0,0,0,0,0,0,0,0,0,0,0,0,0,0,0,0,0,0,0,0,0,0,0,0,0,0,0,0,0,0,0,0,0,0,0,0,0,0,0,0,0,0,0,0,0,0,0,0,0,0,0,-0.3577,-0.3577,0,-0.357,-0.357,-0.357,-0.3559,-0.3558,-0.3558,-0.3558,-0.3552,-0.3552,-0.3552,0,0,0,0,0,0,0,0,0,0,0,0,0,-0.3579,-0.3579,-0.3577,-0.3576,-0.3576,-0.357,-0.357,-0.357,-0.3559,-0.3558,-0.3558,-0.3558,-0.3552,-0.3552,-0.3552,0,0,0,0,0,0,0,0,0,0,0,0,0,-0.3576,-0.3579,-0.3577,-0.357,-0.3569,-0.357,-0.357,-0.357,-0.3559,-0.3558,-0.3558,-0.3558,-0.3552,-0.3552,-0.3552,-0.3559,0,0,-0.3552,-0.3552,0,0,0,0,0,0,0,0,-0.3576,-0.3576,-0.3571,-0.357,-0.357,-0.3565,-0.3569,-0.3566,-0.3559,-0.3563,-0.3558,-0.3557,-0.3556,-0.3556,-0.3556,-0.3559,-0.3558,-0.3552,-0.3552,-0.3552,-0.3552,0,0,0,0,0,0,0,-0.3576,-0.3576,-0.3574,-0.3571,-0.357,-0.3567,-0.3567,-0.3568,-0.3562,-0.3562,-0.3561,-0.3561,-0.3556,-0.3556,-0.3555,-0.3558,-0.3552,-0.3552,-0.3552,-0.3552,-0.3567,-0.3567,0,0,0,0,0,0,-0.3578,-0.3576,-0.3574,-0.3574,-0.3572,-0.3568,-0.3567,-0.3567,-0.3561,-0.356,-0.3561,-0.356,-0.3556,-0.3555,-0.3555,-0.3563,-0.3552,-0.3552,-0.3552,-0.3567,-0.3567,-0.3567,0,0,0,0,0,0,-0.3578,-0.3578,-0.3575,-0.3575,-0.3574,-0.3568,-0.3568,-0.3567,-0.3566,-0.3561,-0.3559,-0.3562,-0.3555,-0.3555,-0.3558,-0.3563,-0.3552,-0.3552,-0.3566,-0.3567,-0.3567,-0.3579,0,0,0,0,0,0,-0.3578,-0.3578,-0.358,-0.3575,-0.3574,-0.3577,-0.3568,-0.3567,-0.3566,-0.3565,-0.3561,-0.356,-0.3555,-0.3558,-0.3558,-0.3563,-0.3552,-0.3566,-0.3566,-0.3567,-0.3578,-0.358,-0.3581,0,0,0,0,0,-0.3578,-0.3584,-0.358,-0.358,-0.3577,-0.3578,-0.3577,-0.3572,-0.3567,-0.3569,-0.3566,-0.356,-0.3562,-0.3558,-0.3558,-0.3563,-0.3565,-0.3566,-0.3567,-0.3578,-0.358,-0.3581,0,0,0,0,0,0,-0.359,-0.3583,-0.3579,-0.3583,-0.3581,-0.3576,-0.3579,-0.3574,-0.3573,-0.3572,-0.3565,-0.3564,-0.3568,-0.3566,-0.3562,-0.357,-0.3563,-0.3564,-0.3571,-0.3573,-0.3575,-0.3575,-0.3552,0,0,0,0,0,-0.3593,-0.3594,-0.3588,-0.3592,-0.3591,-0.3585,-0.3585,-0.3581,-0.3578,-0.3577,-0.3574,-0.3572,-0.3572,-0.3572,-0.3572,-0.3578,-0.3577,-0.3581,-0.3583,-0.3584,-0.3585,-0.3588,-0.359,-0.357,-0.357,-0.357,0,0,-0.3599,-0.3596,-0.3597,-0.3594,-0.3592,-0.3593,-0.3585,-0.3586,-0.3587,-0.3578,-0.358,-0.3578,-0.3575,-0.3579,-0.3581,-0.3578,-0.359,-0.3585,-0.3586,-0.3586,-0.3589,-0.3591,-0.3592,-0.3571,-0.3571,-0.357,0,0,-0.3611,-0.3609,-0.3612,-0.361,-0.3607,-0.3603,-0.3604,-0.3599,-0.3597,-0.3599,-0.3593,-0.3594,-0.3594,-0.3592,-0.3592,-0.3603,-0.3598,-0.3604,-0.3612,-0.3615,-0.3616,-0.3618,-0.3622,-0.3624,-0.3604,-0.3604,-0.3604,0,-0.362,-0.3621,-0.3614,-0.3616,-0.3616,-0.3607,-0.3611,-0.3609,-0.3606,-0.3606,-0.3602,-0.3603,-0.36,-0.3604,-0.3607,-0.3607,-0.3608,-0.3604,-0.3617,-0.3618,-0.3619,-0.3623,-0.3625,-0.3605,-0.3605,-0.3605,-0.3605,0,-0.3631,-0.3632,-0.3636,-0.3633,-0.3632,-0.3635,-0.3629,-0.363,-0.3626,-0.3622,-0.3625,-0.3622,-0.3621,-0.3621,-0.3617,-0.3625,-0.3623,-0.3618,-0.3611,-0.3622,-0.3625,-0.3627,-0.3606,-0.3606,-0.3606,-0.3605,0,0,-0.3651,-0.3644,-0.3646,-0.3644,-0.364,-0.3641,-0.3643,-0.3642,-0.3643,-0.3641,-0.3643,-0.3644,-0.3639,-0.3638,-0.3634,-0.3637,-0.3646,-0.3631,-0.3631,-0.3634,-0.3654,-0.3658,-0.366,-0.3643,-0.3643,-0.3643,-0.3655,0,-0.3662,-0.3666,-0.366,-0.3665,-0.3666,-0.3658,-0.366,-0.3658,-0.3655,-0.3655,-0.3652,-0.3653,-0.3646,-0.3646,-0.3648,-0.3645,-0.365,-0.3644,-0.3645,-0.3645,-0.3646,-0.3662,-0.3666,-0.3677,-0.3656,-0.3656,-0.3657,0,-0.3675,-0.3674,-0.3679,-0.3675,-0.3675,-0.3677,-0.3676,-0.3676,-0.3674,-0.3671,-0.3671,-0.3666,-0.3668,-0.3661,-0.3664,-0.366,-0.366,-0.3659,-0.3659,-0.3659,-0.3651,-0.3662,-0.368,-0.3682,-0.3659,-0.3658,-0.3658,0,-0.3689,-0.3689,-0.3692,-0.3691,-0.3686,-0.3688,-0.3686,-0.3683,-0.3683,-0.3681,-0.3681,-0.3681,-0.368,-0.368,-0.3675,-0.367,-0.3679,-0.3672,-0.3677,-0.3677,-0.3679,-0.3679,-0.3697,-0.3679,-0.3679,-0.3679,-0.3679,0,-0.3702,-0.3706,-0.3698,-0.37,-0.3703,-0.3697,-0.3701,-0.3698,-0.3696,-0.3697,-0.369,-0.3692,-0.3685,-0.3686,-0.3682,-0.3685,-0.3685,-0.3683,-0.3682,-0.3684,-0.3684,-0.3684,-0.3683,-0.3679,-0.3679,-0.3679,-0.3679,0,-0.3718,-0.3713,-0.3716,-0.3711,-0.371,-0.3712,-0.3708,-0.371,-0.3706,-0.3708,-0.3708,-0.3703,-0.3703,-0.3698,-0.3698,-0.3695,-0.37,-0.3698,-0.3701,-0.37,-0.3706,-0.3705,-0.3724,-0.3727,-0.3707,-0.3708,-0.3708,0,-0.3727,-0.3729,-0.3724,-0.3725,-0.3723,-0.3724,-0.3724,-0.3717,-0.3717,-0.3715,-0.3717,-0.3717,-0.3716,-0.3718,-0.3714,-0.3714,-0.3711,-0.3718,-0.3711,-0.3713,-0.3711,-0.3711,-0.3711,-0.3719,-0.3719,-0.372,-0.372,0,-0.3743,-0.374,-0.374,-0.3739,-0.3739,-0.3738,-0.3736,-0.3737,-0.373,-0.3731,-0.3731,-0.3731,-0.3731,-0.3731,-0.373,-0.3728,-0.3723,-0.3722,-0.3723,-0.3725,-0.3727,-0.3726,-0.3705,-0.3722,-0.3721,-0.3721,-0.3721,-0.3721,-0.3755,-0.3757,-0.3754,-0.3754,-0.3752,-0.3751,-0.3752,-0.3749,-0.3749,-0.3748,-0.3745,-0.3746,-0.3744,-0.3742,-0.374,-0.3741,-0.3738,-0.374,-0.374,-0.3741,-0.3742,-0.3727,-0.3741,-0.3741,-0.3741,-0.3741,-0.3741,0,-0.3771,-0.3768,-0.3769,-0.3767,-0.3767,-0.3762,-0.376,-0.3761,-0.3762,-0.376,-0.376,-0.376,-0.376,-0.3757,-0.3756,-0.3758,-0.3755,-0.3758,-0.3758,-0.3757,-0.3744,-0.3743,-0.376,-0.376,-0.376,-0.376,-0.376,-0.376,-0.3779,-0.3782,-0.3779,-0.3781,-0.3779,-0.3779,-0.3779,-0.3778,-0.3776,-0.3777,-0.3777,-0.3775,-0.3772,-0.3772,-0.3772,-0.377,-0.3771,-0.3774,-0.3772,-0.376,-0.3758,-0.3756,-0.3755,-0.3774,-0.3774,-0.3785,-0.3785,-0.3785]},{"header":{"parameterUnit":"m.s-1","parameterCategory":1,"la1":30.2991,"la2":30.254,"lo1":-89.0895,"lo2":-89.0444,"dy":0.0017,"dx":0.0017,"nx":28,"ny":28,"refTime":"2025-04-24T21:00:00:Z","depth":0,"parameterNumber":3,"parameterNumberName":"V-component_of_WINDS"},"data":[0,0,0,0,0,0,0,0,0,0,0,0,0,0,0,0,0,0,0,0,0,0,0,0,0,0,0,0,0,0,0,0,0,0,0,0,0,0,0,0,0,0,0,0,0,0,0,0,0,0,0,0,0,0,0,0,0,0,-0.3045,-0.3045,0,-0.3108,-0.3109,-0.311,-0.3141,-0.3141,-0.3141,-0.3141,-0.3206,-0.3208,-0.3209,0,0,0,0,0,0,0,0,0,0,0,0,0,-0.295,-0.2952,-0.3045,-0.3046,-0.3046,-0.3108,-0.3109,-0.311,-0.3141,-0.3141,-0.3141,-0.3141,-0.3205,-0.3207,-0.3209,0,0,0,0,0,0,0,0,0,0,0,0,0,-0.3,-0.2952,-0.3045,-0.3069,-0.3072,-0.3108,-0.3109,-0.311,-0.3141,-0.3141,-0.3141,-0.3141,-0.3205,-0.3207,-0.321,-0.3225,0,0,-0.3218,-0.3219,0,0,0,0,0,0,0,0,-0.2997,-0.3004,-0.3065,-0.3068,-0.3071,-0.3117,-0.31,-0.3149,-0.3141,-0.3115,-0.3141,-0.3141,-0.3176,-0.3181,-0.3193,-0.3228,-0.3231,-0.3218,-0.3219,-0.322,-0.3221,0,0,0,0,0,0,0,-0.2994,-0.3001,-0.307,-0.3066,-0.307,-0.3077,-0.3084,-0.3109,-0.3145,-0.3117,-0.312,-0.3127,-0.3178,-0.319,-0.3195,-0.3232,-0.3218,-0.322,-0.3222,-0.3223,-0.3284,-0.3284,0,0,0,0,0,0,-0.2987,-0.2998,-0.3068,-0.3072,-0.3034,-0.3079,-0.3087,-0.3102,-0.3145,-0.3151,-0.3127,-0.3128,-0.3186,-0.3192,-0.3197,-0.3219,-0.322,-0.3223,-0.3224,-0.3284,-0.3284,-0.3285,0,0,0,0,0,0,-0.2984,-0.2992,-0.3065,-0.3036,-0.3046,-0.3081,-0.3097,-0.3103,-0.3116,-0.3152,-0.3158,-0.3133,-0.3186,-0.3194,-0.3218,-0.3222,-0.3224,-0.3226,-0.3284,-0.3284,-0.3284,-0.3262,0,0,0,0,0,0,-0.2982,-0.2991,-0.2998,-0.3036,-0.3047,-0.3085,-0.3098,-0.3105,-0.312,-0.3123,-0.3159,-0.3165,-0.3187,-0.3214,-0.3221,-0.3225,-0.3228,-0.3284,-0.3284,-0.3284,-0.3263,-0.3262,-0.326,0,0,0,0,0,-0.2978,-0.2989,-0.2998,-0.3006,-0.3056,-0.3085,-0.3092,-0.3116,-0.3121,-0.3127,-0.315,-0.3164,-0.322,-0.3217,-0.3224,-0.3229,-0.3284,-0.3284,-0.3284,-0.3263,-0.3262,-0.326,0,0,0,0,0,0,-0.295,-0.2994,-0.3005,-0.3028,-0.3053,-0.3091,-0.31,-0.3114,-0.3138,-0.3139,-0.3168,-0.3176,-0.3199,-0.3216,-0.3212,-0.3247,-0.3253,-0.3255,-0.3235,-0.3234,-0.3232,-0.3228,-0.323,0,0,0,0,0,-0.2947,-0.2967,-0.3005,-0.3022,-0.3034,-0.3064,-0.3078,-0.3095,-0.3122,-0.3132,-0.3157,-0.3183,-0.3206,-0.3221,-0.3244,-0.3265,-0.3274,-0.3273,-0.3272,-0.327,-0.3272,-0.3285,-0.3285,-0.3285,-0.3285,-0.3285,0,0,-0.294,-0.2966,-0.2978,-0.3017,-0.3038,-0.3059,-0.3073,-0.3094,-0.311,-0.3136,-0.3161,-0.318,-0.321,-0.3233,-0.3245,-0.3249,-0.3273,-0.3271,-0.327,-0.3272,-0.3285,-0.3285,-0.3285,-0.3285,-0.3285,-0.3285,0,0,-0.2938,-0.296,-0.2977,-0.2998,-0.303,-0.3051,-0.3054,-0.309,-0.3104,-0.313,-0.315,-0.3169,-0.3208,-0.3229,-0.3245,-0.3251,-0.3265,-0.3258,-0.3252,-0.3265,-0.3265,-0.3265,-0.3268,-0.3268,-0.3259,-0.3259,-0.3259,0,-0.2925,-0.2958,-0.2984,-0.3004,-0.3021,-0.3045,-0.3063,-0.3082,-0.3119,-0.313,-0.3134,-0.3185,-0.3207,-0.3236,-0.3237,-0.3249,-0.3255,-0.3254,-0.3263,-0.3263,-0.3264,-0.3266,-0.3267,-0.3258,-0.3258,-0.3258,-0.3259,0,-0.2941,-0.2963,-0.2973,-0.3009,-0.3027,-0.3045,-0.3074,-0.3089,-0.3104,-0.3125,-0.3151,-0.3178,-0.3208,-0.3216,-0.323,-0.3247,-0.3248,-0.3257,-0.3264,-0.3262,-0.3265,-0.3267,-0.3257,-0.3257,-0.3257,-0.3258,0,0,-0.2923,-0.2974,-0.2977,-0.2994,-0.3032,-0.3049,-0.3069,-0.3098,-0.3111,-0.3136,-0.3153,-0.3186,-0.3195,-0.3213,-0.323,-0.3241,-0.3245,-0.3249,-0.325,-0.3247,-0.3265,-0.3259,-0.3259,-0.3254,-0.3255,-0.3255,-0.3263,0,-0.2927,-0.2964,-0.2988,-0.3016,-0.3037,-0.306,-0.3078,-0.3102,-0.3122,-0.3142,-0.3164,-0.3187,-0.3196,-0.3207,-0.3219,-0.3242,-0.3249,-0.3242,-0.3271,-0.3272,-0.3263,-0.3261,-0.3254,-0.326,-0.3264,-0.3264,-0.3265,0,-0.2936,-0.2962,-0.2991,-0.3027,-0.3036,-0.3051,-0.308,-0.31,-0.3128,-0.3142,-0.3162,-0.318,-0.3202,-0.3207,-0.3238,-0.3232,-0.3246,-0.3259,-0.326,-0.3264,-0.3268,-0.3265,-0.3263,-0.3264,-0.3267,-0.3267,-0.3266,0,-0.2921,-0.2962,-0.2986,-0.2999,-0.3041,-0.3051,-0.3069,-0.3098,-0.3114,-0.3139,-0.315,-0.3177,-0.3192,-0.3213,-0.3238,-0.3239,-0.3267,-0.3273,-0.3279,-0.3278,-0.3284,-0.3283,-0.3283,-0.3291,-0.3291,-0.3291,-0.3291,0,-0.2923,-0.294,-0.2979,-0.2994,-0.3014,-0.3041,-0.3061,-0.308,-0.3106,-0.3124,-0.3146,-0.3163,-0.3195,-0.3216,-0.3235,-0.3258,-0.3265,-0.3276,-0.3281,-0.3275,-0.3273,-0.3284,-0.3284,-0.3292,-0.3292,-0.3292,-0.3291,0,-0.291,-0.2936,-0.2963,-0.3001,-0.3011,-0.3024,-0.3056,-0.3071,-0.3091,-0.3115,-0.3122,-0.3154,-0.318,-0.3207,-0.3242,-0.3255,-0.3277,-0.3284,-0.3268,-0.327,-0.3274,-0.3274,-0.3282,-0.3285,-0.329,-0.329,-0.329,0,-0.2909,-0.2923,-0.2962,-0.2977,-0.2994,-0.3016,-0.3033,-0.3061,-0.3077,-0.3111,-0.3122,-0.3149,-0.3173,-0.3213,-0.324,-0.3266,-0.3274,-0.3275,-0.3278,-0.3271,-0.3275,-0.3274,-0.3276,-0.3274,-0.3274,-0.3274,-0.3274,0,-0.2906,-0.2919,-0.2942,-0.297,-0.299,-0.3013,-0.3037,-0.3048,-0.308,-0.3097,-0.3124,-0.3142,-0.3178,-0.3205,-0.3235,-0.3254,-0.3269,-0.3273,-0.3275,-0.3269,-0.3259,-0.3265,-0.3265,-0.3272,-0.3272,-0.3273,-0.3273,-0.3273,-0.29,-0.2913,-0.2943,-0.2968,-0.299,-0.3012,-0.3028,-0.3051,-0.3074,-0.3105,-0.312,-0.3147,-0.3175,-0.3218,-0.3236,-0.3257,-0.3261,-0.3265,-0.3266,-0.3267,-0.3265,-0.3255,-0.3263,-0.3263,-0.3263,-0.3263,-0.3263,0,-0.2898,-0.2918,-0.2941,-0.2975,-0.2995,-0.3008,-0.3035,-0.3051,-0.3075,-0.31,-0.3123,-0.3154,-0.318,-0.3209,-0.3237,-0.3249,-0.3257,-0.3255,-0.3255,-0.3259,-0.326,-0.3255,-0.3249,-0.3249,-0.3249,-0.3249,-0.3249,-0.3249,-0.2899,-0.2923,-0.2939,-0.2974,-0.2995,-0.3021,-0.3036,-0.3057,-0.3077,-0.3111,-0.3133,-0.3152,-0.3179,-0.3209,-0.3234,-0.3242,-0.3252,-0.3248,-0.3258,-0.3258,-0.3259,-0.326,-0.3256,-0.325,-0.325,-0.3256,-0.3256,-0.3256]}]]